Simultaneous Nadir Overpasses (SNOs) Predictions

Prediction of SNOs between AQUA and NOAA-19 Satellite Orbit:

Table of predicted SNOs for the next 14.0 days since TLE Epoch: 5/27/2023
Index Date (AQUA) Time (AQUA) Lat,Lon (AQUA) SZA (AQUA ) Date (NOAA-19) Time (NOAA-19) Lat,Lon (NOAA-19) SZA (NOAA-19 ) Distance(km) Time Diff (sec)
1 05/28/2023 15:43:23 75.99, -64.13 54.56 05/28/2023 15:42:19 75.94, -67.74 54.69 97.42 64
2 05/28/2023 16:32:58 -76.53, 101.75 124.84 05/28/2023 16:33:07 -76.55, 101.84 124.83 3.07 9
3 05/30/2023 21:15:10 -76.48, 31.39 125.23 05/30/2023 21:14:39 -76.51, 31.35 125.20 2.84 31
4 05/30/2023 22:04:37 76.56,-161.23 54.85 05/30/2023 22:05:36 76.53,-161.27 54.82 3.00 59
5 06/02/2023 01:57:22 -76.45, -39.04 125.57 06/02/2023 01:56:11 -76.46, -39.16 125.54 3.05 71
6 06/02/2023 02:46:49 76.53, 128.33 54.52 06/02/2023 02:47:08 76.51, 128.30 54.50 3.01 19
7 06/04/2023 07:29:00 76.48, 57.97 54.20 06/04/2023 07:28:40 76.47, 57.86 54.20 3.18 20
8 06/04/2023 08:18:25 -76.54,-134.56 125.75 06/04/2023 08:19:39 -76.53,-134.66 125.76 2.54 74
9 06/06/2023 12:11:11 76.46, -12.46 53.93 06/06/2023 12:10:11 76.48, -12.44 53.96 2.58 60
10 06/06/2023 13:00:36 -76.51, 155.01 126.02 06/06/2023 13:01:10 -76.51, 154.96 126.02 1.49 34
11 06/08/2023 17:42:47 -76.50, 84.50 126.23 06/08/2023 17:42:41 -76.49, 84.55 126.24 2.04 6



Historial Predications of SNOs between AQUA and NOAA-19
